Date String (YYYY-MM-DD hh:mm:ss) UTC,Instrument flags,Ambient pressure (hPa),Sample flow (lpm),Bypass flow (lpm),Sample temperature (°C),Ambient temperature (°C),ASC tube jacket temperature (°C),LED temperature (°C),Box temperature (°C),Sample RH (%),Span deviation,Mass concentration (μg/m³),Mass concentration (μg/m³),Mass concentration (μg/m³)
DateTimeUTC,F1_M11,P_M11,Q1_M11,Q2_M11,T1_M11,T2_M11,T3_M11,T4_M11,T5_M11,U1_M11,ZSPAN_M11,X0_M11,X2_M11,X1_M11
2021-09-10 10:00:00,,0829.7,5.00,0.00,29.6,27.9,00.0,38.8,31.3,10.3,-002.1,0029.91,0020.21,0019.04
2021-09-10 10:01:00,,0829.7,5.00,0.00,29.6,28.1,00.0,38.8,31.3,10.3,-001.8,0029.94,0020.25,0019.04
2021-09-10 10:02:00,,0829.7,5.01,0.00,29.7,28.2,00.0,38.8,31.3,10.2,-001.4,0029.83,0020.23,0019.03
2021-09-10 10:03:00,,0829.7,5.01,0.00,29.7,28.4,00.0,38.8,31.4,10.0,-001.1,0029.70,0020.18,0019.01
2021-09-10 10:04:00,,0829.8,5.00,0.00,29.7,28.5,00.0,38.8,31.4,10.1,-000.8,0029.59,0020.09,0018.92
2021-09-10 10:05:00,,0829.7,4.99,0.00,29.7,28.5,00.0,38.8,31.5,10.1,-000.9,0028.98,0019.93,0018.79
2021-09-10 10:06:00,,0829.7,5.00,0.00,29.8,28.6,00.0,38.8,31.5,10.2,-000.9,0028.75,0019.76,0018.69
2021-09-10 10:07:00,,0829.7,5.00,0.00,29.8,28.7,00.0,38.8,31.5,09.9,-000.6,0028.48,0019.69,0018.59
2021-09-10 10:08:00,,0829.6,5.02,0.00,29.8,28.7,00.0,38.8,31.6,09.6,-000.5,0028.41,0019.57,0018.46
2021-09-10 10:09:00,,0829.7,5.00,0.00,29.8,28.8,00.0,38.8,31.6,09.8,-000.7,0028.83,0019.48,0018.36
2021-09-10 10:10:00,,0829.7,5.00,0.00,29.9,28.8,00.0,38.9,31.7,10.4,-000.8,0029.19,0019.37,0018.26
2021-09-10 10:11:00,,0829.8,5.00,0.00,29.9,28.9,00.0,38.9,31.7,10.5,-000.7,0028.35,0019.28,0018.18
2021-09-10 10:12:00,,0829.7,5.00,0.00,29.9,28.9,00.0,38.9,31.7,10.5,-000.7,0028.16,0019.15,0018.09
2021-09-10 10:13:00,,0829.7,5.01,0.00,29.9,29.0,00.0,38.9,31.7,10.3,-001.2,0028.06,0019.06,0018.00
2021-09-10 10:14:00,,0829.7,5.01,0.00,29.9,29.0,00.0,38.9,31.7,10.1,-001.1,0027.96,0019.01,0017.92
2021-09-10 10:15:00,,0829.7,4.99,0.00,30.0,29.0,00.0,38.9,31.7,10.0,-001.5,0027.94,0018.99,0017.89
2021-09-10 10:16:00,,0829.7,5.00,0.00,30.0,29.0,00.0,39.0,31.7,09.7,-001.8,0027.96,0019.02,0017.89
2021-09-10 10:17:00,,0829.7,4.99,0.00,30.0,29.0,00.0,39.0,31.8,09.6,-001.6,0027.73,0019.00,0017.87
2021-09-10 10:18:00,,0829.8,5.02,0.00,30.0,29.1,00.0,39.0,31.8,09.6,-001.6,0027.31,0019.00,0017.87
2021-09-10 10:19:00,,0829.7,4.99,0.00,30.1,29.1,00.0,39.0,31.8,09.6,-001.6,0027.38,0018.98,0017.83
2021-09-10 10:20:00,,0829.7,5.00,0.00,30.1,29.1,00.0,39.0,31.8,09.6,-001.3,0027.04,0018.93,0017.82
2021-09-10 10:21:00,,0829.7,5.01,0.00,30.1,28.5,00.0,39.1,31.7,09.6,-000.5,0026.62,0018.91,0017.81
2021-09-10 10:22:00,,0829.7,5.01,0.00,30.0,26.6,00.0,39.0,31.3,09.6,-000.4,0027.17,0018.90,0017.80
2021-09-10 10:23:00,,0829.6,4.99,0.00,29.8,26.3,00.0,39.0,31.1,09.7,-000.5,0027.54,0018.86,0017.77
2021-09-10 10:24:00,,0830.0,4.99,0.00,29.7,26.6,00.0,39.0,31.1,09.7,0000.2,0028.67,0018.80,0017.72
2021-09-10 10:25:00,,0829.6,5.00,0.00,29.7,27.0,00.0,38.9,31.1,09.7,0000.7,0028.67,0018.71,0017.65
2021-09-10 10:26:00,,0829.7,5.01,0.00,29.6,27.4,00.0,38.9,31.2,09.8,0000.7,0029.24,0018.67,0017.61
2021-09-10 10:27:00,,0829.7,5.00,0.00,29.6,27.6,00.0,38.9,31.2,09.7,0000.9,0029.28,0018.68,0017.59
2021-09-10 10:28:00,,0829.9,4.99,0.00,29.6,27.9,00.0,38.8,31.3,09.7,0000.9,0029.47,0018.65,0017.53
2021-09-10 10:29:00,,0829.7,5.02,0.00,29.7,28.1,00.0,38.8,31.3,09.8,0001.0,0029.58,0018.60,0017.48
2021-09-10 10:30:00,,0829.6,5.01,0.00,29.7,28.2,00.0,38.8,31.4,09.9,0001.2,0029.05,0018.59,0017.47
2021-09-10 10:31:00,,0829.9,5.00,0.00,29.7,28.3,00.0,38.8,31.4,10.0,0001.9,0028.75,0018.63,0017.47
2021-09-10 10:32:00,,0829.9,5.01,0.00,29.7,28.4,00.0,38.8,31.4,09.9,0001.6,0028.62,0018.69,0017.51
2021-09-10 10:33:00,,0829.6,4.99,0.00,29.7,28.5,00.0,38.8,31.5,09.8,0001.6,0028.30,0018.66,0017.49
2021-09-10 10:34:00,,0829.7,5.01,0.00,29.8,28.6,00.0,38.8,31.5,09.7,0002.4,0028.23,0018.67,0017.45
2021-09-10 10:35:00,,0829.6,5.01,0.00,29.8,28.7,00.0,38.8,31.5,09.7,0002.7,0027.80,0018.72,0017.45
2021-09-10 10:36:00,,0829.6,4.99,0.00,29.8,28.7,00.0,38.8,31.5,09.7,0002.5,0027.61,0018.75,0017.46
2021-09-10 10:37:00,,0829.6,5.00,0.00,29.8,28.7,00.0,38.9,31.6,09.6,0002.6,0027.12,0018.72,0017.45
2021-09-10 10:38:00,,0829.7,4.99,0.00,29.8,28.8,00.0,38.9,31.6,09.6,0002.0,0026.89,0018.60,0017.41
2021-09-10 10:39:00,,0829.7,5.01,0.00,29.9,28.8,00.0,38.9,31.6,09.6,0001.5,0026.82,0018.59,0017.42
2021-09-10 10:40:00,,0829.7,5.00,0.00,29.9,28.8,00.0,38.9,31.6,09.6,0001.7,0026.48,0018.56,0017.44
2021-09-10 10:41:00,,0829.8,5.00,0.00,29.9,28.9,00.0,38.9,31.7,09.6,0001.6,0026.41,0018.54,0017.46
2021-09-10 10:42:00,,0829.8,4.99,0.00,29.9,28.9,00.0,38.9,31.7,09.5,0001.2,0026.77,0018.47,0017.44
2021-09-10 10:43:00,,0829.8,5.00,0.00,30.0,28.9,00.0,39.0,31.7,09.5,0001.5,0027.21,0018.44,0017.39
2021-09-10 10:44:00,,0829.8,5.00,0.00,30.0,29.0,00.0,39.0,31.8,09.5,0001.0,0027.49,0018.40,0017.36
2021-09-10 10:45:00,,0829.7,4.99,0.00,30.0,29.0,00.0,39.0,31.7,09.5,0000.3,0027.27,0018.36,0017.35
2021-09-10 10:46:00,,0829.8,5.00,0.00,30.0,29.0,00.0,39.0,31.8,09.5,-000.2,0027.03,0018.33,0017.34
2021-09-10 10:47:00,,0829.8,5.00,0.00,30.0,29.0,00.0,39.0,31.8,09.5,-000.4,0027.17,0018.29,0017.33
2021-09-10 10:48:00,,0829.8,5.00,0.00,30.1,29.1,00.0,39.1,31.8,09.5,-000.3,0027.77,0018.29,0017.31
2021-09-10 10:49:00,,0829.8,4.99,0.00,30.1,29.1,00.0,39.1,31.9,09.5,0000.6,0027.61,0018.33,0017.29
2021-09-10 10:50:00,,0829.8,5.00,0.00,30.1,29.1,00.0,39.1,31.9,09.4,0001.1,0027.45,0018.29,0017.25
2021-09-10 10:51:00,,0829.8,5.00,0.00,30.1,29.2,00.0,39.1,31.9,09.4,0000.6,0027.40,0018.24,0017.20
2021-09-10 10:52:00,,0829.8,5.01,0.00,30.1,29.1,00.0,39.1,31.9,09.5,0000.4,0027.25,0018.21,0017.17
2021-09-10 10:53:00,,0829.8,4.99,0.00,30.1,27.3,00.0,39.1,31.5,09.6,0000.2,0026.69,0018.21,0017.16
2021-09-10 10:54:00,,0829.8,5.01,0.00,29.9,26.3,00.0,39.1,31.2,09.8,-000.0,0026.13,0018.21,0017.19
2021-09-10 10:55:00,,0829.8,4.99,0.00,29.8,26.5,00.0,39.0,31.2,09.9,0000.6,0025.95,0018.29,0017.26
2021-09-10 10:56:00,,0829.8,5.00,0.00,29.7,26.9,00.0,39.0,31.2,10.0,0000.4,0025.97,0018.39,0017.35
2021-09-10 10:57:00,,0829.8,5.00,0.00,29.7,27.3,00.0,39.0,31.2,10.0,0000.1,0026.32,0018.47,0017.44
2021-09-10 10:58:00,,0829.8,5.00,0.00,29.7,27.6,00.0,38.9,31.3,10.1,-000.0,0026.23,0018.60,0017.54
2021-09-10 10:59:00,,0829.8,5.00,0.00,29.7,27.9,00.0,38.9,31.3,10.1,-000.7,0025.74,0018.70,0017.65
